Time,TemperatureF,DewpointF,PressureIn,WindDirection,WindDirectionDegrees,WindSpeedMPH,WindSpeedGustMPH,Humidity,HourlyPrecipIn,Conditions,Clouds,dailyrainin,SoftwareType,DateUTC
2013-03-04 00:01:00,34.0,25.0,30.22,NNW,343,0.0,4.0,69,0.00,,,0.01,,2013-03-04 08:01:00,
2013-03-04 00:11:00,34.0,25.0,30.22,SW,230,0.0,1.0,69,0.00,,,0.01,,2013-03-04 08:11:00,
2013-03-04 00:21:00,34.0,25.0,30.22,SW,230,0.0,1.0,69,0.00,,,0.01,,2013-03-04 08:21:00,
2013-03-04 00:31:00,35.0,26.0,30.22,NNW,347,0.0,4.0,69,0.00,,,0.01,,2013-03-04 08:31:00,
2013-03-04 00:41:00,35.0,26.0,30.22,NNW,347,0.0,4.0,69,0.00,,,0.01,,2013-03-04 08:41:00,
2013-03-04 00:52:00,34.0,25.0,30.22,SSW,200,0.0,0.0,69,0.00,,,0.01,,2013-03-04 08:52:00,
2013-03-04 01:01:00,34.0,25.0,30.21,SSW,200,0.0,0.0,69,0.00,,,0.01,,2013-03-04 09:01:00,
2013-03-04 01:21:00,33.0,24.0,30.21,North,360,0.0,2.0,68,0.00,,,0.01,,2013-03-04 09:21:00,
2013-03-04 01:31:00,33.0,23.0,30.20,NNW,340,0.0,0.0,67,0.00,,,0.01,,2013-03-04 09:31:00,
2013-03-04 01:52:00,34.0,24.0,30.20,NNW,340,0.0,1.0,67,0.00,,,0.01,,2013-03-04 09:52:00,
2013-03-04 02:01:00,34.0,25.0,30.20,North,360,0.0,0.0,68,0.00,,,0.01,,2013-03-04 10:01:00,
2013-03-04 02:11:00,34.0,25.0,30.20,North,360,0.0,0.0,68,0.00,,,0.01,,2013-03-04 10:11:00,
2013-03-04 02:21:00,33.0,24.0,30.20,NW,316,0.0,4.0,68,0.00,,,0.01,,2013-03-04 10:21:00,
2013-03-04 02:31:00,33.0,24.0,30.19,North,349,0.0,1.0,68,0.00,,,0.01,,2013-03-04 10:31:00,
2013-03-04 02:41:00,33.0,23.0,30.19,NNW,340,0.0,1.0,67,0.00,,,0.01,,2013-03-04 10:41:00,
2013-03-04 02:52:00,33.0,23.0,30.19,NNW,340,0.0,1.0,67,0.00,,,0.01,,2013-03-04 10:52:00,
2013-03-04 03:01:00,32.0,22.0,30.18,NNW,340,0.0,0.0,66,0.00,,,0.01,,2013-03-04 11:01:00,
2013-03-04 03:21:00,32.0,22.0,30.18,NNW,340,0.0,0.0,66,0.00,,,0.01,,2013-03-04 11:21:00,
2013-03-04 03:31:00,32.0,22.0,30.18,SSW,200,0.0,2.0,66,0.00,,,0.01,,2013-03-04 11:31:00,
2013-03-04 03:52:00,32.0,22.0,30.18,NNW,340,0.0,0.0,66,0.00,,,0.01,,2013-03-04 11:52:00,
2013-03-04 04:01:00,32.0,23.0,30.18,North,360,0.0,0.0,69,0.00,,,0.01,,2013-03-04 12:01:00,
2013-03-04 04:11:00,32.0,22.0,30.18,North,352,0.0,2.0,67,0.00,,,0.01,,2013-03-04 12:11:00,
2013-03-04 04:21:00,32.0,22.0,30.18,North,352,0.0,2.0,67,0.00,,,0.01,,2013-03-04 12:21:00,
2013-03-04 04:32:00,32.0,23.0,30.19,NNW,346,1.0,4.0,68,0.00,,,0.01,,2013-03-04 12:32:00,
2013-03-04 04:52:00,32.0,24.0,30.18,North,360,0.0,4.0,71,0.00,,,0.01,,2013-03-04 12:52:00,
2013-03-04 05:01:00,32.0,23.0,30.18,North,360,0.0,0.0,70,0.00,,,0.01,,2013-03-04 13:01:00,
2013-03-04 05:21:00,33.0,25.0,30.17,SSW,202,0.0,1.0,72,0.00,,,0.01,,2013-03-04 13:21:00,
2013-03-04 05:31:00,34.0,26.0,30.17,SSW,199,0.0,3.0,73,0.00,,,0.01,,2013-03-04 13:31:00,
2013-03-04 05:41:00,34.0,26.0,30.17,SSW,199,0.0,3.0,73,0.00,,,0.01,,2013-03-04 13:41:00,
2013-03-04 05:52:00,34.0,26.0,30.17,SSW,200,0.0,1.0,72,0.00,,,0.01,,2013-03-04 13:52:00,
2013-03-04 06:01:00,34.0,26.0,30.18,SSW,204,0.0,3.0,72,0.00,,,0.01,,2013-03-04 14:01:00,
2013-03-04 06:11:00,34.0,26.0,30.18,SSW,204,0.0,3.0,72,0.00,,,0.01,,2013-03-04 14:11:00,
2013-03-04 06:21:00,33.0,24.0,30.17,SW,220,0.0,0.0,68,0.00,,,0.01,,2013-03-04 14:21:00,
2013-03-04 06:31:00,33.0,24.0,30.16,SW,220,0.0,0.0,70,0.00,,,0.01,,2013-03-04 14:31:00,
2013-03-04 06:41:00,33.0,24.0,30.16,SW,220,0.0,0.0,70,0.00,,,0.01,,2013-03-04 14:41:00,
2013-03-04 06:52:00,33.0,25.0,30.15,SSW,200,0.0,1.0,71,0.00,,,0.01,,2013-03-04 14:52:00,
2013-03-04 07:01:00,33.0,24.0,30.14,NNW,339,0.0,1.0,69,0.00,,,0.01,,2013-03-04 15:01:00,
2013-03-04 07:11:00,33.0,24.0,30.14,NNW,339,0.0,1.0,69,0.00,,,0.01,,2013-03-04 15:11:00,
2013-03-04 07:21:00,31.0,22.0,30.14,North,360,0.0,1.0,68,0.00,,,0.01,,2013-03-04 15:21:00,
2013-03-04 07:31:00,31.0,22.0,30.14,NNW,340,0.0,1.0,68,0.00,,,0.01,,2013-03-04 15:31:00,
2013-03-04 07:52:00,33.0,24.0,30.14,SSW,200,0.0,1.0,69,0.00,,,0.01,,2013-03-04 15:52:00,
2013-03-04 08:02:00,34.0,25.0,30.14,SSW,200,0.0,1.0,70,0.00,,,0.01,,2013-03-04 16:02:00,
2013-03-04 08:11:00,34.0,25.0,30.14,SSW,200,0.0,1.0,70,0.00,,,0.01,,2013-03-04 16:11:00,
2013-03-04 08:21:00,35.0,27.0,30.14,SW,219,0.0,1.0,71,0.00,,,0.01,,2013-03-04 16:21:00,
2013-03-04 08:31:00,35.0,26.0,30.14,SSW,211,0.0,1.0,70,0.00,,,0.01,,2013-03-04 16:31:00,
2013-03-04 08:41:00,35.0,26.0,30.14,SSW,211,0.0,1.0,70,0.00,,,0.01,,2013-03-04 16:41:00,
2013-03-04 08:52:00,36.0,27.0,30.14,SW,220,0.0,1.0,70,0.00,,,0.01,,2013-03-04 16:52:00,
2013-03-04 09:01:00,37.0,28.0,30.13,WNW,290,0.0,0.0,69,0.00,,,0.01,,2013-03-04 17:01:00,
2013-03-04 09:11:00,37.0,28.0,30.13,WNW,290,0.0,0.0,69,0.00,,,0.01,,2013-03-04 17:11:00,
2013-03-04 09:21:00,38.0,27.0,30.11,SW,220,0.0,1.0,65,0.00,,,0.01,,2013-03-04 17:21:00,
2013-03-04 09:31:00,38.0,28.0,30.11,West,267,1.0,4.0,67,0.00,,,0.01,,2013-03-04 17:31:00,
2013-03-04 09:42:00,38.0,28.0,30.11,West,267,1.0,4.0,67,0.00,,,0.01,,2013-03-04 17:42:00,
2013-03-04 09:52:00,39.0,28.0,30.10,West,272,0.0,3.0,64,0.00,,,0.01,,2013-03-04 17:52:00,
2013-03-04 10:01:00,40.0,29.0,30.10,SSW,206,0.0,5.0,64,0.00,,,0.01,,2013-03-04 18:01:00,
2013-03-04 10:11:00,40.0,29.0,30.10,SSW,206,0.0,5.0,64,0.00,,,0.01,,2013-03-04 18:11:00,
2013-03-04 10:21:00,41.0,28.0,30.10,SSW,199,1.0,4.0,60,0.01,,,0.02,,2013-03-04 18:21:00,
2013-03-04 10:31:00,41.0,27.0,30.09,North,350,1.0,4.0,57,0.00,,,0.02,,2013-03-04 18:31:00,
2013-03-04 10:41:00,41.0,27.0,30.09,North,350,1.0,4.0,57,0.00,,,0.02,,2013-03-04 18:41:00,
2013-03-04 10:52:00,42.0,25.0,30.09,SSW,210,0.0,2.0,51,0.00,,,0.02,,2013-03-04 18:52:00,
2013-03-04 11:01:00,43.0,27.0,30.08,North,360,0.0,4.0,53,0.00,,,0.02,,2013-03-04 19:01:00,
2013-03-04 11:11:00,43.0,27.0,30.08,North,360,0.0,4.0,53,0.00,,,0.02,,2013-03-04 19:11:00,
2013-03-04 11:21:00,44.0,26.0,30.07,NNW,340,0.0,3.0,48,0.00,,,0.02,,2013-03-04 19:21:00,
2013-03-04 11:31:00,45.0,23.0,30.07,West,274,0.0,4.0,42,0.00,,,0.02,,2013-03-04 19:31:00,
2013-03-04 11:52:00,46.0,24.0,30.07,SW,216,0.0,4.0,42,0.00,,,0.02,,2013-03-04 19:52:00,
2013-03-04 12:01:00,46.0,24.0,30.06,North,349,0.0,2.0,42,0.00,,,0.02,,2013-03-04 20:01:00,
2013-03-04 12:11:00,48.0,22.0,30.06,NW,323,1.0,4.0,36,0.00,,,0.02,,2013-03-04 20:11:00,
2013-03-04 12:21:00,48.0,22.0,30.06,NW,323,1.0,4.0,36,0.00,,,0.02,,2013-03-04 20:21:00,
2013-03-04 12:31:00,48.0,23.0,30.05,SW,229,0.0,5.0,37,0.00,,,0.02,,2013-03-04 20:31:00,
2013-03-04 12:52:00,49.0,23.0,30.04,SW,234,0.0,3.0,36,0.00,,,0.02,,2013-03-04 20:52:00,
2013-03-04 13:01:00,50.0,23.0,30.03,NNW,345,0.0,4.0,35,0.00,,,0.02,,2013-03-04 21:01:00,
2013-03-04 13:11:00,50.0,23.0,30.03,NNW,345,0.0,4.0,35,0.00,,,0.02,,2013-03-04 21:11:00,
2013-03-04 13:21:00,51.0,23.0,30.02,SSW,201,1.0,5.0,33,0.00,,,0.02,,2013-03-04 21:21:00,
2013-03-04 13:31:00,52.0,22.0,30.02,SSW,199,0.0,2.0,30,0.00,,,0.02,,2013-03-04 21:31:00,
2013-03-04 13:52:00,53.0,20.0,30.01,SW,233,0.0,4.0,27,0.00,,,0.02,,2013-03-04 21:52:00,
2013-03-04 14:01:00,54.0,18.0,30.00,North,356,2.0,6.0,24,0.00,,,0.02,,2013-03-04 22:01:00,
2013-03-04 14:21:00,55.0,16.0,29.99,North,351,3.0,8.0,21,0.00,,,0.02,,2013-03-04 22:21:00,
2013-03-04 14:31:00,55.0,14.0,29.98,NNW,328,3.0,11.0,19,0.00,,,0.02,,2013-03-04 22:31:00,
2013-03-04 14:52:00,56.0,9.0,29.97,NW,326,5.0,9.0,15,0.00,,,0.02,,2013-03-04 22:52:00,
2013-03-04 15:01:00,56.0,6.0,29.97,SSW,207,1.0,8.0,13,0.00,,,0.02,,2013-03-04 23:01:00,
2013-03-04 15:31:00,56.0,-4.0,29.95,SSW,211,4.0,12.0,8,0.00,,,0.02,,2013-03-04 23:31:00,
2013-03-04 16:01:00,55.0,-19.0,29.95,WSW,237,4.0,10.0,4,0.00,,,0.02,,2013-03-05 00:01:00,
2013-03-04 16:21:00,55.0,-15.0,29.95,SW,216,2.0,9.0,5,0.00,,,0.02,,2013-03-05 00:21:00,
2013-03-04 16:32:00,55.0,-19.0,29.94,SSW,208,1.0,8.0,4,0.00,,,0.02,,2013-03-05 00:32:00,
2013-03-04 16:52:00,54.0,-15.0,29.93,SW,230,0.0,10.0,5,0.00,,,0.02,,2013-03-05 00:52:00,
2013-03-04 17:01:00,54.0,-15.0,29.93,WSW,240,1.0,6.0,5,0.00,,,0.02,,2013-03-05 01:01:00,
2013-03-04 17:21:00,53.0,-9.0,29.93,WSW,256,2.0,11.0,7,0.00,,,0.02,,2013-03-05 01:21:00,
2013-03-04 17:32:00,52.0,-13.0,29.93,WSW,254,2.0,10.0,6,0.00,,,0.02,,2013-03-05 01:32:00,
2013-03-04 18:01:00,50.0,-23.0,29.93,NW,321,5.0,10.0,4,0.00,,,0.02,,2013-03-05 02:01:00,
2013-03-04 18:21:00,49.0,-12.0,29.93,NNW,329,4.0,9.0,7,0.00,,,0.02,,2013-03-05 02:21:00,
2013-03-04 18:31:00,48.0,-16.0,29.93,NW,313,3.0,9.0,6,0.00,,,0.01,,2013-03-05 02:31:00,
2013-03-04 18:52:00,47.0,-14.0,29.92,NNW,348,5.0,10.0,7,0.00,,,0.01,,2013-03-05 02:52:00,
2013-03-04 19:01:00,47.0,-14.0,29.92,WNW,287,1.0,10.0,7,0.00,,,0.01,,2013-03-05 03:01:00,
2013-03-04 19:11:00,47.0,-5.0,29.92,SSW,199,0.0,4.0,11,0.00,,,0.01,,2013-03-05 03:11:00,
2013-03-04 19:21:00,47.0,-5.0,29.92,SSW,199,0.0,4.0,11,0.00,,,0.01,,2013-03-05 03:21:00,
2013-03-04 19:31:00,46.0,-7.0,29.91,SSW,200,0.0,3.0,10,0.00,,,0.01,,2013-03-05 03:31:00,
2013-03-04 19:52:00,45.0,-6.0,29.92,SW,220,0.0,0.0,11,0.00,,,0.01,,2013-03-05 03:52:00,
2013-03-04 20:01:00,45.0,0.0,29.92,North,360,0.0,1.0,15,0.00,,,0.01,,2013-03-05 04:01:00,
2013-03-04 20:21:00,43.0,10.0,29.92,NNW,340,0.0,1.0,26,0.00,,,0.01,,2013-03-05 04:21:00,
2013-03-04 20:31:00,42.0,12.0,29.91,NNW,339,0.0,1.0,29,0.00,,,0.01,,2013-03-05 04:31:00,
2013-03-04 20:52:00,41.0,14.0,29.92,North,360,0.0,1.0,33,0.00,,,0.01,,2013-03-05 04:52:00,
2013-03-04 21:01:00,40.0,15.0,29.92,North,360,0.0,1.0,35,0.00,,,0.01,,2013-03-05 05:01:00,
2013-03-04 21:22:00,39.0,16.0,29.91,NNW,340,0.0,2.0,39,0.00,,,0.01,,2013-03-05 05:22:00,
2013-03-04 21:31:00,39.0,17.0,29.91,North,350,0.0,3.0,41,0.00,,,0.01,,2013-03-05 05:31:00,
2013-03-04 21:52:00,38.0,18.0,29.91,North,350,0.0,2.0,44,0.00,,,0.01,,2013-03-05 05:52:00,
2013-03-04 22:01:00,38.0,19.0,29.91,North,360,0.0,0.0,46,0.00,,,0.01,,2013-03-05 06:01:00,
2013-03-04 22:21:00,37.0,19.0,29.91,North,360,0.0,1.0,48,0.00,,,0.01,,2013-03-05 06:21:00,
2013-03-04 22:31:00,37.0,20.0,29.90,NNW,340,0.0,0.0,49,0.00,,,0.01,,2013-03-05 06:31:00,
2013-03-04 22:52:00,36.0,20.0,29.90,North,356,0.0,4.0,51,0.00,,,0.01,,2013-03-05 06:52:00,
2013-03-04 23:01:00,36.0,20.0,29.90,SSW,200,0.0,0.0,52,0.00,,,0.01,,2013-03-05 07:01:00,
2013-03-04 23:21:00,36.0,20.0,29.90,SSW,200,0.0,0.0,52,0.00,,,0.01,,2013-03-05 07:21:00,
2013-03-04 23:31:00,35.0,19.0,29.90,NNW,347,0.0,3.0,52,0.00,,,0.01,,2013-03-05 07:31:00,
2013-03-04 23:51:00,35.0,20.0,29.90,North,358,0.0,2.0,54,0.00,,,0.01,,2013-03-05 07:51:00,